Regional Weather Roundup
Issued by NWS Charleston, WV

Home | Current Version | Previous Version | Graphics & Text | Print | Product List | Glossary On
Versions: 1 2 3 4 5 6 7 8 9 10 11 12 13 14 15 16 17 18 19 20 21 22 23 24 25 26 27 28 29 30 31 32 33 34 35 36 37 38 39 40 41 42 43 44 45 46 47 48 49 50
000
ASUS41 KRLX 102310
RWRRLX
West Virginia Regional Weather Roundup
National Weather Service Charleston WV
600 PM EST WED FEB 10 2016

Note: "fair" indicates few or no clouds below 12,000 feet with no
significant weather and/or obstructions to visibility.

WVZ003-110000-
Northern Panhandle of West Virginia

CITY           SKY/WX    TMP DP  RH WIND       PRES   REMARKS
WHEELING       MOCLDY    18  10  71 W12G24    29.89R WCI   5
$$

WVZ009-110000-
Northwest West Virginia

CITY           SKY/WX    TMP DP  RH WIND       PRES   REMARKS
PARKERSBURG    LGT SNOW  19  12  74 W9        30.01R WCI   8
$$

WVZ006-110000-
Western West Virginia

CITY           SKY/WX    TMP DP  RH WIND       PRES   REMARKS
HUNTINGTON     CLOUDY    19   5  54 W10G20    30.04R WCI   7
$$

WVZ015-110000-
West Central West Virginia

CITY           SKY/WX    TMP DP  RH WIND       PRES   REMARKS
CHARLESTON     FLURRIES  20   8  60 W12G17    30.00R WCI   8
$$

WVZ022-031-110000-
North Central West Virginia

CITY           SKY/WX    TMP DP  RH WIND       PRES   REMARKS
CLARKSBURG     LGT SNOW  18  12  77 W12       29.92R WCI   5
MORGANTOWN     CLOUDY    18   9  68 SW6       29.90R WCI  10
$$

WVZ025-035-042-045-110000-
Southern West Virginia

CITY           SKY/WX    TMP DP  RH WIND       PRES   REMARKS
BECKLEY        LGT SNOW  14   7  73 NW9       29.87R WCI   2
LOGAN          LGT SNOW  16  12  86 CALM      29.96R
BLUEFIELD      CLOUDY    13   4  67 W10G24    29.84S WCI   0
LEWISBURG      CLOUDY    19   8  63 W8        29.86S WCI   8
$$

WVZ047-110000-
Northern Mountains of West Virginia

CITY           SKY/WX    TMP DP  RH WIND       PRES   REMARKS
ELKINS         LGT SNOW  15   7  70 W9G17     29.87R WCI   3
$$

WVZ052-110000-
Eastern Panhandle of West Virginia

CITY           SKY/WX    TMP DP  RH WIND       PRES   REMARKS
MARTINSBURG    CLOUDY    24  11  57 W15       29.88R
PETERSBURG     CLOUDY    23   7  49 CALM      29.91R
$$



USA.gov is the U.S. government's official web portal to all federal, state and local government web resources and services.